Voltar ao catálogo

STARLINK-36150

AtivoComunicaçõesVLEO
NORAD 67031·PAYLOAD·🇺🇸 United States

Lançado Dec 11, 2025 de Cape Canaveral Space Force Station

Loading…

Próximas Passagens (próximas 24 horas)

TLE

AtualizadoSource: CelesTrak SupGP

Época: Sep 15, 2026, 02:52 UTC

1 67031C 25294B   26258.11993056 -.00021870  00000+0 -79203-3 0  2587
2 67031  43.0008  47.8427 0001442 268.8973 145.3592 15.27593822    14

Acompanhe STARLINK-36150 em tempo real com AllMySat

Download on the App Store